铱星星座 920星 (IRIDIUM 920)

导读 | 星芒AI

IRIDIUM 920 是 Iridium 卫星通信公司部署的一颗低轨卫星,属于 Iridium NEXT 卫星星座的一部分。该卫星运行在约 780 公里的极地轨道上,提供全球范围的语音和数据通信服务。IRIDIUM 920 采用先进设计,支持多种通信协议,具备高可靠性和抗干扰能力,广泛应用于航空、航海、应急响应和远程监测等领域。该星座由 66 颗工作卫星组成,确保全球无缝覆盖,为用户提供稳定的移动通信解决方案。

基本信息
目录编号:
24871
目录名称:
IRIDIUM 920
国际标识:
1997-034C
轨道中心:
EARTH
卫星名称:
铱星星座 920星
卫星全名:
铱星星座 920星 (IRIDIUM 920)
卫星状态:
在轨 (已飞行10384 天)
发射日期:
1997-07-09 UTC
国别 :
美国 (US)
星等 :
--
轨道信息
数据来源 国际轨道数据
星历时间: 2025-12-13T06:56:53+0800
10小时前
查看轨道信息
半长轴: 7130.93km
偏心率: 0.0010646
轨道倾角: 86.398°
近地点辐角 202.680°
升交点赤经 138.471°
平近点角 157.393°
近地点: 745.203km
远地点: 760.387km
周期: 99.880分钟
每日圈数: 14.417287
详细信息
平衡模式:
三轴稳定
覆盖范围:
全球
运营商:
铱星通信公司
运营商所在国:
美国
使用方式:
暂无
卫星简介
铱星(Iridium)是由共66个运作中的通信卫星组成的卫星通信系统。这个系统原本规划77个通信卫星,所以用原子序数为77的铱元素来命名。铱卫星允许人们使用手持型电子设备进行全球性的语音及数据通讯。该卫星已退役。
2D轨道图
3D轨道图
轨道高度分析图
轨道倾角分析图
轨道综合分析图
查看轨道综合分析图